一网星座-0383星 (ONEWEB-0383 )

导读 | 豆包AI

ONEWEB-0383是英国OneWeb公司的低轨宽带卫星,于2021年10月14日发射,是OneWeb全球卫星互联网星座的组成部分。 OneWeb星座计划通过数百颗低轨卫星组网,为全球偏远地区、基础设施薄弱区域提供 affordable的高速互联网接入服务。该卫星运行在近地轨道,助力OneWeb完成全球网络覆盖布局,推动全球互联基础设施建设,目前已成为全球低轨卫星互联网服务的重要节点。

Basic Information
目录编号:
49309
目录名称:
ONEWEB-0383
国际标识:
2021-090AG
轨道中心:
EARTH
卫星名称:
一网星座-0383星
卫星全名:
一网星座-0383星 (ONEWEB-0383 )
卫星状态:
在轨 (已飞行1659 天)
发射日期:
2021-10-14 UTC
国别 :
英国 (GB)
星等 :
--
Orbit Information
数据来源 国际轨道数据 AOE轨道数据
星历时间 2026-04-30T08:01:43+0800
10小时前
查看轨道信息
2026-04-28T16:00:00+0800
2天前
查看轨道信息
半长轴 7583.929km 7583.935km
偏心率 0.000193 0.0002068
轨道倾角 87.893° 87.895°
近地点辐角 93.962° 78.697°
升交点赤经 299.312° 299.644°
平近点角 266.173° 313.244°
近地点 1204.328km 1204.229km
远地点 1207.256km 1207.367km
周期 109.547分钟 109.547分钟
每日圈数 13.145024 13.14501
Detailed Information
平衡模式:
三轴稳定
覆盖范围:
全球
运营商:
一网卫星公司
运营商所在国:
英国
制造商(研发单位):
一网卫星公司
制造商所在国:
英国
使用方式:
暂无
Satellite Introduction
OneWeb卫星网络由648颗重约125公斤的微型卫星组成,运行在1200公里的轨道上。 每颗卫星都能够提供至少每秒8千兆位的吞吐量,以使用其高吞吐量的Ku频段有效载荷为家庭和移动平台提供互联网接入。该卫星仍在工作。
2D Orbit Map
3D Orbit Map
Orbit Altitude Analysis Chart
Orbit Inclination Analysis Chart
Orbit Comprehensive Analysis Chart
View Comprehensive Chart